Location: Cudham
(51.3000°N, 0.0667°E)
Time: 23:36:27
(UTC+00:00)

CZ-2C R/B - Pass Details

Date: 15 May 2026
Orbit: 330 x 342 km, 97.7° (Epoch: 11 June)

Event Time Altitude Azimuth Distance (km) Brightness Sun altitude
Exits shadow 21:54:24 29° 201° (SSW) 648 2.8 -14.8°
Maximum altitude 21:55:26 47° 259° (WSW) 452 2.5 -14.9°
Drops below altitude 10° 21:58:03 10° 335° (NNW) 1,276 6.1 -15.1°
Sets 22:00:01 0° 342° (NNW) 2,122 7.6 -15.2°
